OBJECT H, 63217

Orbit data source: Space-Track

You're viewing an Uncataloged Satellite

Recently launched and/or uncataloged satellites may have evolving metadata. Metadata may include but not limited to: Owner, Maufacturer, Bus, Motor, and Mission.

OBJECT H, 63217 is a satellite in SSO that was launched on Sat, 15 Mar 2025 UTC via an FALCON 9 launch vehicle from the Air Force Western Test Range (AFWTR). Unknown objects in Earth's orbit typically refer to objects detected orbiting the Earth but have not yet been identified or cataloged. These objects could be anything from previously untracked satellites, spent rocket stages, debris from satellite collisions, or even natural meteoroids temporarily captured by Earth's gravity.

Loading next visibility...
Identifier
63217, 2025-052H
Orbit
SSO
Country
Flag of TBDTBD
Related business
None
Manufacturer
Unknown
Mission
Operational Amateur Communications
Bus & Motor
Unknown
Mass
Unknown
Launch date (UTC)
2025-03-15 (7 months ago)
Launch vehicle
FALCON 9
Launch site
Air Force Western Test Range (AFWTR)
Object type
Unknown
Shape & HBR
Box, 0.2 m
Radar Cross Section
0.015 m², Small (<0.1 m²)

Expand to show TLE details & history
Last TLE update: 20 hours ago

TLE from 20 hours ago
0 OBJECT H
1 63217U 25052H   25300.46224493  .00017788  00000-0  72710-3 0  9998
2 63217  97.4094 192.5179 0001660 184.5843 175.5380 15.24419058 34526
Epoch: 2025-10-27T11:05Z
TLE epoch observation values (Epoch: 2025-10-27T11:05:37.961Z)
Latitude
-0.00001°
Longitude
-9.95401°
Altitude
496.764 km
Speed
7.616 km/s
True Right ascension
12h 50m 04s
True Declination
0° 00' 00"
Sunlit
Object was in daylight at epoch
Visualization orbit readout
Latitude
Unknown
Longitude
Unknown
Altitude
Unknown
Speed
Unknown
Apparent Right ascension
Unknown
Apparent Declination
Unknown
Sunlit
N/A
Visualization observer readout
Local Sidereal Time
02:54:38
Azimuth
Unknown
Elevation
Unknown
Doppler factor
Unknown
Orbital elements
Apogee altitude
490.631 km
Perigee altitude
488.351 km
Semi-major axis
6,867.628 km
Eccentricity
0.00017
Inclination
97.4094°
RAAN
192.5179°
Arg. of periapsis
184.5843°
True anomaly
175.53948°
Mean anomaly
175.538°
Eccentric anomaly
175.53874°
Mean motion
3.81358 °/min
Orbital period
94.4 mins
BSTAR
0.0007271
Loading maneuver chart data...
Computing Atmospheric mass density...
Loading historical data...
Loading historical data...
Loading historical data...
Loading historical data...
Loading historical data...
Loading historical data...
Loading historical data...

Documentation

Showing up to 5 results
|